Flag for U.S.A. Weather past 2 weeks in Roanoke, Virginia, U.S.A.

Now
46 °F

Clear.


Feels Like: 45 °F
Forecast: 41 / 70 °F
Wind: 3 mph from Southeast

Location: Roanoke Regional Airport

Current Time: Oct 25, 2014 at 5:39:52 AM

Latest Report: Oct 25, 2014 at 4:54 AM


Visibility: 10 mi

Pressure: 30.02 "Hg

Humidity: 71%

Dew point: 37 °F

Location of RoanokeLocation

Historic Weather in Roanoke — Graph

°F

Roanoke temperature yesterday

Maximum temperature yesterday: 70 °F (at 4:54 PM)
Minimum temperature yesterday: 43 °F (at 2:54 AM)
Average temperature yesterday: 55 °F

Past Weeks' High & Low Weather Summary

 TemperatureHumidityPressure
High76 °F (Oct 14, 2:54 PM)100% (Oct 11, 2:54 AM)30.29 "Hg (Oct 11, 2:54 AM)
Low39 °F (Oct 20, 7:54 AM)29% (Oct 24, 4:54 PM)29.73 "Hg (Oct 18, 4:54 AM)
Average57 °F72%30.01 "Hg
* Reported Oct 10 4:54 AM — Oct 25 4:54 AM, Roanoke, Weather by CustomWeather, © 2014

Note: Actual official high and low records may vary slightly from our data, if they occured in-between our weather recording intervals... More about our weather records

Advertising

Roanoke weather history for previous 24 hours

 ConditionsComfort  
Time TempWeatherWind HumidityBarometerVisibility
4:54 AM
Oct 25
46 °FClear.3 mph71%30.02 "Hg10 mi
3:54 AM45 °FClear.7 mph74%30.02 "Hg10 mi
2:54 AM46 °FClear.7 mph68%30.03 "Hg10 mi
1:54 AM47 °FClear.3 mph66%30.03 "Hg10 mi
12:54 AM50 °FClear.No wind57%30.03 "Hg10 mi
11:54 PM
Oct 24
48 °FClear.5 mph59%30.04 "Hg10 mi
10:54 PM55 °FClear.5 mph44%30.03 "Hg10 mi
9:54 PM57 °FClear.14 mph42%30.02 "Hg10 mi
8:54 PM58 °FPassing clouds.9 mph43%30.01 "Hg10 mi
7:54 PM59 °FPassing clouds.No wind44%30.01 "Hg10 mi
6:54 PM60 °FScattered clouds.No wind44%29.99 "Hg10 mi
5:54 PM67 °FPartly sunny.10 mph35%29.97 "Hg10 mi
4:54 PM70 °FPartly sunny.7 mph29%29.97 "Hg10 mi
3:54 PM68 °FPartly sunny.5 mph35%29.98 "Hg9 mi
2:54 PM68 °FPartly sunny.6 mph36%29.99 "Hg10 mi
1:54 PM66 °FPartly sunny.3 mph42%30.01 "Hg10 mi
12:54 PM62 °FPartly sunny.12 mph50%30.05 "Hg10 mi
11:54 AM60 °FBroken clouds.6 mph49%30.07 "Hg10 mi
10:54 AM56 °FBroken clouds.7 mph60%30.09 "Hg10 mi
9:54 AM52 °FMostly cloudy.7 mph69%30.10 "Hg10 mi
8:54 AM49 °FBroken clouds.8 mph74%30.10 "Hg10 mi
7:54 AM48 °FPassing clouds.No wind71%30.08 "Hg10 mi
6:54 AM46 °FPassing clouds.5 mph77%30.10 "Hg10 mi
5:54 AM46 °FClear.7 mph77%30.08 "Hg10 mi
Weather by CustomWeather, © 2014

See weather overviewHow to use our weather pages